Weather History for KSDY - April, 2014

Change the Weather History Date:

Wednesday, April 23, 2014

  Actual Average Record
Temperature  
Mean Temperature 52 °F -  
Max Temperature 60 °F 65 °F 87 °F (2012)
Min Temperature 44 °F 34 °F 12 °F (1967)
Degree Days  
Heating Degree Days 13    
Growing Degree Days 2 (Base 50)    
Moisture  
Dew Point 33 °F    
Average Humidity 49    
Maximum Humidity 82    
Minimum Humidity 27    
Precipitation  
Precipitation 0.01 in - - ()
Sea Level Pressure  
Sea Level Pressure 29.52 in    
Wind  
Wind Speed 17 mph (SW)    
Max Wind Speed 25 mph    
Max Gust Speed 33 mph    
Visibility 10 miles    
Events      
Averages and records for this station are not official NWS values.
T = Trace of Precipitation, MM = Missing Value Source: NWS Daily Summary

Daily Weather History Graph

Daily Weather History Graph

Search for Another Location

Airport or City:

Trip Planner

Search our weather history database for the weather conditions in past years. The results will help you decide how hot, cold, wet, or windy it might be!

Date:

Astronomy

Apr. 23, 2014 Rise Set
Actual Time 5:52 AM MDT 7:58 PM MDT
Civil Twilight 5:19 AM MDT 8:31 PM MDT
Nautical Twilight 4:38 AM MDT 9:13 PM MDT
Astronomical Twilight 3:52 AM MDT 9:59 PM MDT
Moon 2:52 AM MDT (4/23) 1:44 PM MDT (4/23)
Length of Visible Light 15h 11m
Length of Day
14h 05m
Waning Crescent, 34% of the Moon is Illuminated
Apr 23
Waning Crescent
Apr 29
New
May 6
First Quarter
May 14
Full
May 21
Last Quarter

Hourly Weather History & Observations

Time (MDT) Temp. Windchill Dew Point Humidity Pressure Visibility Wind Dir Wind Speed Gust Speed Precip Events Conditions
12:15 AM 57.2 °F - 30.2 °F 36% 29.53 in 10.0 mi ESE 23.0 mph 32.2 mph N/A   Clear
12:35 AM 57.2 °F - 30.2 °F 36% 29.53 in 10.0 mi ESE 18.4 mph 29.9 mph N/A   Clear
12:55 AM 57.2 °F - 30.2 °F 36% 29.52 in 10.0 mi ESE 20.7 mph 28.8 mph N/A   Clear
1:15 AM 55.4 °F - 30.2 °F 38% 29.52 in 10.0 mi ESE 13.8 mph 25.3 mph N/A   Clear
1:35 AM 55.4 °F - 30.2 °F 38% 29.50 in 10.0 mi ESE 19.6 mph 23.0 mph N/A   Clear
1:55 AM 55.4 °F - 32.0 °F 41% 29.48 in 10.0 mi ESE 21.9 mph 29.9 mph N/A   Clear
2:15 AM 55.4 °F - 32.0 °F 41% 29.47 in 10.0 mi ESE 19.6 mph - N/A   Clear
2:35 AM 55.4 °F - 33.8 °F 44% 29.45 in 10.0 mi East 12.7 mph - N/A   Partly Cloudy
2:55 AM 55.4 °F - 33.8 °F 44% 29.43 in 10.0 mi North - - N/A   Clear
3:15 AM 55.4 °F - 35.6 °F 47% 29.42 in 10.0 mi North - - N/A   Mostly Cloudy
3:35 AM 55.4 °F - 37.4 °F 51% 29.40 in 10.0 mi ESE 18.4 mph 24.2 mph N/A   Scattered Clouds
3:55 AM 53.6 °F - 37.4 °F 54% 29.41 in 10.0 mi South 11.5 mph 21.9 mph N/A   Clear
4:15 AM 53.6 °F - 35.6 °F 51% 29.41 in 10.0 mi SSE 9.2 mph - N/A   Clear
4:35 AM 53.6 °F - 35.6 °F 51% 29.40 in 10.0 mi SSE 12.7 mph 19.6 mph N/A   Clear
4:55 AM 53.6 °F - 35.6 °F 51% 29.40 in 10.0 mi SE 13.8 mph 23.0 mph N/A   Clear
5:15 AM 53.6 °F - 35.6 °F 51% 29.40 in 10.0 mi SE 12.7 mph 24.2 mph N/A   Clear
5:35 AM 51.8 °F - 35.6 °F 54% 29.42 in 8.0 mi North - - N/A   Clear
5:55 AM 51.8 °F - 35.6 °F 54% 29.40 in 10.0 mi North - - N/A   Clear
6:15 AM 51.8 °F - 35.6 °F 54% 29.40 in 10.0 mi North - - N/A   Clear
6:35 AM 51.8 °F - 35.6 °F 54% 29.41 in 10.0 mi North - - N/A   Clear
6:55 AM 51.8 °F - 37.4 °F 58% 29.42 in 10.0 mi North - - N/A   Clear
7:15 AM 51.8 °F - 37.4 °F 58% 29.42 in 10.0 mi SSE 13.8 mph 20.7 mph N/A   Clear
7:35 AM 53.6 °F - 37.4 °F 54% 29.42 in 10.0 mi SE 18.4 mph 25.3 mph N/A   Clear
7:55 AM 53.6 °F - 37.4 °F 54% 29.43 in 10.0 mi SSE 13.8 mph 25.3 mph N/A   Clear
8:15 AM 53.6 °F - 37.4 °F 54% 29.43 in 10.0 mi SSE 15.0 mph 19.6 mph N/A   Clear
8:35 AM 55.4 °F - 37.4 °F 51% 29.43 in 10.0 mi SSE 12.7 mph 18.4 mph N/A   Clear
8:55 AM 55.4 °F - 37.4 °F 51% 29.44 in 10.0 mi South 16.1 mph - N/A   Clear
9:15 AM 57.2 °F - 37.4 °F 48% 29.43 in 10.0 mi South 16.1 mph - N/A   Scattered Clouds
9:35 AM 57.2 °F - 37.4 °F 48% 29.43 in 10.0 mi South 15.0 mph - N/A   Overcast
9:55 AM 59.0 °F - 39.2 °F 48% 29.42 in 10.0 mi South 9.2 mph - N/A   Mostly Cloudy
10:15 AM 57.2 °F - 37.4 °F 48% 29.43 in 10.0 mi SSW 8.1 mph - N/A   Mostly Cloudy
10:35 AM 57.2 °F - 37.4 °F 48% 29.45 in 10.0 mi West 20.7 mph 26.5 mph N/A   Overcast
11:15 AM 48.2 °F - 42.8 °F 82% 29.45 in 10.0 mi West 20.7 mph 28.8 mph N/A   Overcast
11:35 AM 48.2 °F - 42.8 °F 82% 29.47 in 10.0 mi WNW 24.2 mph 31.1 mph N/A   Overcast
12:15 PM 48.2 °F - 41.0 °F 76% 29.48 in 10.0 mi WNW 24.2 mph 31.1 mph N/A   Mostly Cloudy
12:35 PM 48.2 °F - 39.2 °F 71% 29.48 in 10.0 mi WNW 24.2 mph 33.4 mph N/A   Overcast
12:55 PM 48.2 °F - 39.2 °F 71% 29.50 in 10.0 mi WNW 23.0 mph 31.1 mph N/A   Overcast
1:15 PM 48.2 °F - 39.2 °F 71% 29.51 in 10.0 mi WNW 25.3 mph 29.9 mph N/A   Overcast
1:35 PM 46.4 °F 38.7 °F 41.0 °F 81% 29.53 in 10.0 mi West 20.7 mph 29.9 mph N/A   Overcast
2:15 PM 46.4 °F 38.7 °F 41.0 °F 81% 29.56 in 10.0 mi West 20.7 mph 27.6 mph 0.01 in   Overcast
2:35 PM 48.2 °F - 41.0 °F 76% 29.57 in 10.0 mi West 17.3 mph 20.7 mph 0.01 in   Overcast
2:55 PM 50.0 °F - 42.8 °F 76% 29.57 in 10.0 mi West 13.8 mph - 0.01 in   Overcast
3:15 PM 51.8 °F - 42.8 °F 71% 29.57 in 10.0 mi WNW 12.7 mph - N/A   Mostly Cloudy
3:35 PM 55.4 °F - 37.4 °F 51% 29.56 in 10.0 mi WNW 17.3 mph 24.2 mph N/A   Overcast
3:55 PM 55.4 °F - 33.8 °F 44% 29.57 in 10.0 mi WNW 20.7 mph 25.3 mph N/A   Overcast
4:15 PM 57.2 °F - 33.8 °F 41% 29.58 in 10.0 mi West 15.0 mph 24.2 mph N/A   Overcast
4:35 PM 59.0 °F - 30.2 °F 34% 29.57 in 10.0 mi WNW 18.4 mph 25.3 mph N/A   Scattered Clouds
4:55 PM 60.8 °F - 28.4 °F 29% 29.58 in 10.0 mi West 20.7 mph 26.5 mph N/A   Clear
5:15 PM 59.0 °F - 26.6 °F 29% 29.58 in 10.0 mi West 20.7 mph 31.1 mph N/A   Clear
5:35 PM 59.0 °F - 24.8 °F 27% 29.59 in 10.0 mi West 19.6 mph 26.5 mph N/A   Clear
5:55 PM 59.0 °F - 24.8 °F 27% 29.60 in 10.0 mi West 19.6 mph 27.6 mph N/A   Clear
6:15 PM 57.2 °F - 24.8 °F 29% 29.61 in 10.0 mi West 18.4 mph 27.6 mph N/A   Clear
6:35 PM 57.2 °F - 24.8 °F 29% 29.61 in 10.0 mi West 20.7 mph 24.2 mph N/A   Clear
6:55 PM 57.2 °F - 24.8 °F 29% 29.62 in 10.0 mi West 13.8 mph 23.0 mph N/A   Clear
7:15 PM 55.4 °F - 24.8 °F 31% 29.63 in 10.0 mi WSW 11.5 mph - N/A   Clear
7:35 PM 51.8 °F - 26.6 °F 38% 29.63 in 10.0 mi WSW 6.9 mph - N/A   Scattered Clouds
7:55 PM 50.0 °F - 26.6 °F 40% 29.63 in 10.0 mi WSW 6.9 mph - N/A   Mostly Cloudy
8:15 PM 46.4 °F 42.4 °F 26.6 °F 46% 29.64 in 10.0 mi SW 8.1 mph - N/A   Mostly Cloudy
8:35 PM 46.4 °F 41.9 °F 26.6 °F 46% 29.65 in 10.0 mi WSW 9.2 mph - N/A   Partly Cloudy
8:55 PM 46.4 °F 41.5 °F 24.8 °F 43% 29.65 in 10.0 mi WSW 10.4 mph - N/A   Clear
9:15 PM 44.6 °F 39.7 °F 26.6 °F 49% 29.66 in 10.0 mi WSW 9.2 mph - N/A   Partly Cloudy
9:35 PM 46.4 °F 41.5 °F 24.8 °F 43% 29.67 in 10.0 mi WSW 10.4 mph - N/A   Clear
9:55 PM 46.4 °F 41.5 °F 24.8 °F 43% 29.67 in 10.0 mi WSW 10.4 mph - N/A   Clear
10:15 PM 46.4 °F 41.1 °F 24.8 °F 43% 29.67 in 10.0 mi West 11.5 mph - N/A   Clear
10:35 PM 46.4 °F 41.1 °F 23.0 °F 40% 29.67 in 10.0 mi West 11.5 mph - N/A   Clear
10:55 PM 44.6 °F 38.4 °F 24.8 °F 46% 29.67 in 10.0 mi WSW 12.7 mph - N/A   Clear
11:15 PM 46.4 °F 40.4 °F 23.0 °F 40% 29.67 in 10.0 mi WSW 13.8 mph - N/A   Clear
11:35 PM 46.4 °F 40.1 °F 23.0 °F 40% 29.67 in 10.0 mi West 15.0 mph - N/A   Clear
11:55 PM 46.4 °F 41.1 °F 21.2 °F 37% 29.68 in 10.0 mi West 11.5 mph - N/A   Clear